Atmospheric History
12/06/2017 18:34  to  12/7/2017 18:34
Change End Date:
To complete the export process:
1) Select all of the data below
2) Copy the data to the clipboard
3) Open a word processor such as Notepad
4) Paste the data into the word processor
5) Save the file

Date/Time (MDT), AirTemp, RH, Dewpoint ,AvgWindSpeed, GustWindSpeed, WindDirection, PrecipType, PrecipIntensity, PrecipAccumulation, PrecipRate
12/07/2017 18:31, 28, 64, 18 ,14, 17, S, None, None, ,  
12/07/2017 18:21, 28, 63, 18 ,13, 16, S, None, None, ,  
12/07/2017 18:21, 28, 63, 18 ,13, 16, S, None, None, ,  
12/07/2017 18:11, 29, 62, 18 ,12, 16, S, None, None, ,  
12/07/2017 18:06, 29, 62, 18 ,12, 16, S, None, None, ,  
12/07/2017 18:01, 29, 62, 18 ,13, 16, S, None, None, ,  
12/07/2017 17:51, 29, 63, 18 ,14, 16, S, None, None, ,  
12/07/2017 17:51, 29, 63, 18 ,14, 16, S, None, None, ,  
12/07/2017 17:41, 29, 62, 18 ,13, 17, S, None, None, ,  
12/07/2017 17:36, 29, 62, 18 ,15, 17, S, None, None, ,  
12/07/2017 17:31, 29, 63, 18 ,15, 19, S, None, None, ,  
12/07/2017 17:21, 30, 62, 18 ,13, 19, S, None, None, ,  
12/07/2017 17:21, 30, 62, 18 ,13, 19, S, None, None, ,  
12/07/2017 17:11, 30, 61, 18 ,14, 16, S, None, None, ,  
12/07/2017 17:06, 30, 62, 18 ,14, 16, S, None, None, ,  
12/07/2017 17:00, 30, 62, 19 ,13, 17, S, None, None, ,  
12/07/2017 16:51, 30, 62, 19 ,13, 16, S, None, None, ,  
12/07/2017 16:50, 30, 62, 19 ,12, 16, S, None, None, ,  
12/07/2017 16:40, 31, 60, 19 ,12, 17, S, None, None, ,  
12/07/2017 16:36, 31, 60, 19 ,14, 17, S, None, None, ,  
12/07/2017 16:30, 31, 61, 19 ,14, 17, S, None, None, ,  
12/07/2017 16:21, 32, 59, 19 ,14, 17, S, None, None, ,  
12/07/2017 16:20, 32, 59, 19 ,13, 16, S, None, None, ,  
12/07/2017 16:10, 33, 56, 19 ,13, 15, S, None, None, ,  
12/07/2017 16:06, 33, 56, 19 ,12, 16, S, None, None, ,  
12/07/2017 16:00, 33, 57, 20 ,12, 16, S, None, None, ,  
12/07/2017 15:51, 34, 54, 19 ,13, 18, S, None, None, ,  
12/07/2017 15:50, 34, 54, 19 ,12, 18, S, None, None, ,  
12/07/2017 15:40, 35, 54, 20 ,14, 17, S, None, None, ,  
12/07/2017 15:36, 35, 54, 20 ,13, 17, S, None, None, ,  
12/07/2017 15:30, 36, 52, 20 ,14, 17, S, None, None, ,  
12/07/2017 15:21, 36, 51, 20 ,14, 18, S, None, None, ,  
12/07/2017 15:20, 36, 51, 20 ,12, 18, S, None, None, ,  
12/07/2017 15:10, 36, 51, 20 ,16, 19, S, None, None, ,  
12/07/2017 15:06, 37, 51, 20 ,15, 19, S, None, None, ,  
12/07/2017 15:00, 37, 51, 20 ,12, 18, S, None, None, ,  
12/07/2017 14:51, 37, 49, 20 ,16, 20, S, None, None, ,  
12/07/2017 14:50, 37, 50, 20 ,16, 20, S, None, None, ,  
12/07/2017 14:40, 37, 49, 20 ,17, 20, S, None, None, ,  
12/07/2017 14:36, 38, 49, 20 ,17, 20, S, None, None, ,  
12/07/2017 14:30, 38, 48, 20 ,16, 20, S, None, None, ,  
12/07/2017 14:21, 38, 49, 20 ,13, 17, S, None, None, ,  
12/07/2017 14:20, 38, 48, 20 ,14, 17, S, None, None, ,  
12/07/2017 14:10, 38, 49, 20 ,11, 19, S, None, None, ,  
12/07/2017 14:06, 38, 49, 20 ,15, 19, S, None, None, ,  
12/07/2017 14:00, 38, 49, 20 ,12, 20, SE, None, None, ,  
12/07/2017 13:51, 38, 49, 20 ,16, 20, S, None, None, ,  
12/07/2017 13:49, 38, 49, 20 ,15, 19, S, None, None, ,  
12/07/2017 13:39, 38, 48, 20 ,16, 18, S, None, None, ,  
12/07/2017 13:36, 38, 49, 20 ,15, 19, S, None, None, ,  
12/07/2017 13:29, 38, 49, 21 ,16, 19, S, None, None, ,  
12/07/2017 13:21, 38, 49, 20 ,16, 20, S, None, None, ,  
12/07/2017 13:19, 38, 49, 20 ,15, 20, S, None, None, ,  
12/07/2017 13:09, 37, 50, 20 ,16, 21, S, None, None, ,  
12/07/2017 13:06, 37, 49, 20 ,17, 21, S, None, None, ,  
12/07/2017 12:59, 36, 52, 20 ,14, 21, S, None, None, ,  
12/07/2017 12:51, 36, 50, 19 ,18, 21, S, None, None, ,  
12/07/2017 12:49, 37, 51, 20 ,17, 21, S, None, None, ,  
12/07/2017 12:39, 35, 52, 19 ,17, 21, S, None, None, ,  
12/07/2017 12:36, 35, 51, 19 ,17, 21, S, None, None, ,  
12/07/2017 12:29, 35, 52, 19 ,16, 21, S, None, None, ,  
12/07/2017 12:21, 35, 52, 19 ,17, 22, S, None, None, ,  
12/07/2017 12:19, 35, 52, 19 ,18, 22, S, None, None, ,  
12/07/2017 12:09, 34, 54, 20 ,17, 22, S, None, None, ,  
12/07/2017 12:06, 34, 53, 19 ,19, 22, S, None, None, ,  
12/07/2017 11:59, 35, 52, 19 ,17, 21, S, None, None, ,  
12/07/2017 11:51, 35, 52, 19 ,16, 19, S, None, None, ,  
12/07/2017 11:49, 34, 53, 19 ,15, 21, S, None, None, ,  
12/07/2017 11:39, 34, 53, 19 ,16, 20, S, None, None, ,  
12/07/2017 11:36, 34, 54, 19 ,14, 20, S, None, None, ,  
12/07/2017 11:29, 33, 54, 19 ,17, 21, S, None, None, ,  
12/07/2017 11:21, 34, 54, 19 ,17, 21, S, None, None, ,  
12/07/2017 11:19, 34, 54, 19 ,15, 21, S, None, None, ,  
12/07/2017 11:09, 34, 55, 19 ,14, 20, S, None, None, ,  
12/07/2017 11:06, 33, 56, 19 ,16, 20, SE, None, None, ,  
12/07/2017 10:59, 33, 55, 19 ,15, 19, S, None, None, ,  
12/07/2017 10:51, 33, 57, 19 ,14, 21, S, None, None, ,  
12/07/2017 10:49, 33, 56, 19 ,17, 22, S, None, None, ,  
12/07/2017 10:38, 33, 56, 19 ,17, 21, S, None, None, ,  
12/07/2017 10:36, 33, 57, 19 ,14, 21, SE, None, None, ,  
12/07/2017 10:28, 32, 59, 19 ,14, 19, S, None, None, ,  
12/07/2017 10:21, 31, 60, 19 ,14, 19, S, None, None, ,  
12/07/2017 10:18, 31, 59, 18 ,16, 19, S, None, None, ,  
12/07/2017 10:08, 30, 61, 19 ,12, 16, S, None, None, ,  
12/07/2017 10:06, 30, 62, 19 ,14, 17, S, None, None, ,  
12/07/2017 09:58, 30, 62, 19 ,13, 17, S, None, None, ,  
12/07/2017 09:51, 29, 64, 19 ,12, 16, S, None, None, ,  
12/07/2017 09:48, 29, 64, 19 ,12, 16, S, None, None, ,  
12/07/2017 09:38, 28, 67, 18 ,13, 16, S, None, None, ,  
12/07/2017 09:36, 28, 67, 19 ,12, 15, S, None, None, ,  
12/07/2017 09:28, 27, 70, 19 ,9, 12, S, None, None, ,  
12/07/2017 09:21, 26, 72, 18 ,8, 11, S, None, None, ,  
12/07/2017 09:18, 26, 72, 18 ,7, 11, S, None, None, ,  
12/07/2017 09:08, 25, 74, 18 ,8, 10, S, None, None, ,  
12/07/2017 09:06, 25, 74, 18 ,7, 11, S, None, None, ,  
12/07/2017 08:58, 24, 73, 17 ,10, 12, S, None, None, ,  
12/07/2017 08:51, 24, 74, 17 ,11, 14, S, None, None, ,  
12/07/2017 08:48, 24, 74, 17 ,11, 14, S, None, None, ,  
12/07/2017 08:38, 24, 73, 17 ,12, 14, S, None, None, ,  
12/07/2017 08:36, 24, 73, 17 ,11, 14, S, None, None, ,  
12/07/2017 08:28, 24, 74, 17 ,11, 14, S, None, None, ,  
12/07/2017 08:21, 24, 73, 17 ,12, 14, S, None, None, ,  
12/07/2017 08:18, 24, 73, 17 ,12, 16, S, None, None, ,  
12/07/2017 08:08, 24, 72, 17 ,13, 16, S, None, None, ,  
12/07/2017 08:06, 24, 73, 17 ,14, 16, S, None, None, ,  
12/07/2017 07:58, 23, 75, 17 ,11, 12, S, None, None, ,  
12/07/2017 07:51, 23, 75, 17 ,9, 12, S, None, None, ,  
12/07/2017 07:48, 23, 76, 16 ,11, 13, S, None, None, ,  
12/07/2017 07:38, 23, 75, 16 ,11, 13, S, None, None, ,  
12/07/2017 07:36, 23, 76, 17 ,11, 13, S, None, None, ,  
12/07/2017 07:28, 22, 76, 16 ,12, 15, S, None, None, ,  
12/07/2017 07:21, 23, 75, 16 ,13, 15, S, None, None, ,  
12/07/2017 07:17, 23, 75, 16 ,12, 13, S, None, None, ,  
12/07/2017 07:07, 24, 74, 17 ,12, 14, S, None, None, ,  
12/07/2017 07:06, 23, 74, 16 ,12, 14, S, None, None, ,  
12/07/2017 06:57, 24, 72, 16 ,13, 15, S, None, None, ,  
12/07/2017 06:52, 24, 72, 16 ,11, 14, S, None, None, ,  
12/07/2017 06:47, 24, 71, 16 ,11, 15, S, None, None, ,  
12/07/2017 06:37, 24, 72, 17 ,12, 14, S, None, None, ,  
12/07/2017 06:36, 24, 73, 17 ,12, 14, S, None, None, ,  
12/07/2017 06:27, 24, 74, 16 ,9, 14, S, None, None, ,  
12/07/2017 06:21, 24, 73, 16 ,11, 14, S, None, None, ,  
12/07/2017 06:17, 24, 73, 16 ,12, 13, S, None, None, ,  
12/07/2017 06:07, 24, 73, 16 ,11, 15, S, None, None, ,  
12/07/2017 06:06, 24, 73, 16 ,11, 15, S, None, None, ,  
12/07/2017 05:57, 23, 74, 16 ,12, 14, S, None, None, ,  
12/07/2017 05:51, 24, 73, 16 ,12, 14, S, None, None, ,  
12/07/2017 05:47, 24, 73, 16 ,11, 14, S, None, None, ,  
12/07/2017 05:37, 24, 72, 16 ,11, 14, S, None, None, ,  
12/07/2017 05:36, 24, 72, 16 ,11, 14, S, None, None, ,  
12/07/2017 05:27, 24, 72, 17 ,12, 13, S, None, None, ,  
12/07/2017 05:21, 24, 72, 16 ,9, 12, S, None, None, ,  
12/07/2017 05:17, 24, 72, 16 ,10, 12, S, None, None, ,  
12/07/2017 05:07, 23, 74, 16 ,10, 12, S, None, None, ,  
12/07/2017 05:06, 23, 75, 17 ,10, 12, S, None, None, ,  
12/07/2017 04:57, 22, 76, 16 ,11, 12, S, None, None, ,  
12/07/2017 04:51, 23, 76, 16 ,10, 12, S, None, None, ,  
12/07/2017 04:47, 23, 75, 16 ,10, 12, S, None, None, ,  
12/07/2017 04:37, 23, 74, 16 ,11, 12, S, None, None, ,  
12/07/2017 04:36, 23, 74, 16 ,11, 12, S, None, None, ,  
12/07/2017 04:26, 24, 73, 16 ,11, 12, S, None, None, ,  
12/07/2017 04:21, 24, 73, 16 ,11, 14, S, None, None, ,  
12/07/2017 04:16, 24, 72, 17 ,12, 14, S, None, None, ,  
12/07/2017 04:06, 24, 72, 17 ,13, 15, S, None, None, ,  
12/07/2017 04:06, 24, 72, 17 ,13, 15, S, None, None, ,  
12/07/2017 03:56, 24, 73, 17 ,11, 13, S, None, None, ,  
12/07/2017 03:51, 23, 74, 16 ,11, 13, S, None, None, ,  
12/07/2017 03:46, 24, 73, 16 ,11, 15, S, None, None, ,  
12/07/2017 03:36, 24, 73, 17 ,12, 14, S, None, None, ,  
12/07/2017 03:36, 24, 73, 17 ,12, 14, S, None, None, ,  
12/07/2017 03:26, 23, 75, 17 ,12, 13, S, None, None, ,  
12/07/2017 03:21, 24, 74, 17 ,11, 13, S, None, None, ,  
12/07/2017 03:16, 24, 74, 17 ,11, 13, S, None, None, ,  
12/07/2017 03:06, 24, 73, 17 ,12, 14, S, None, None, ,  
12/07/2017 03:06, 24, 73, 17 ,12, 14, S, None, None, ,  
12/07/2017 02:56, 24, 74, 17 ,12, 14, S, None, None, ,  
12/07/2017 02:51, 24, 73, 17 ,12, 14, S, None, None, ,  
12/07/2017 02:46, 24, 73, 17 ,12, 14, S, None, None, ,  
12/07/2017 02:36, 24, 73, 17 ,13, 15, S, None, None, ,  
12/07/2017 02:36, 24, 73, 17 ,13, 15, S, None, None, ,  
12/07/2017 02:26, 24, 74, 17 ,11, 13, S, None, None, ,  
12/07/2017 02:21, 24, 73, 17 ,12, 14, S, None, None, ,  
12/07/2017 02:16, 24, 73, 17 ,11, 15, S, None, None, ,  
12/07/2017 02:06, 24, 73, 17 ,12, 14, S, None, None, ,  
12/07/2017 02:06, 24, 73, 17 ,11, 14, S, None, None, ,  
12/07/2017 01:56, 25, 71, 17 ,12, 13, S, None, None, ,  
12/07/2017 01:51, 25, 71, 17 ,12, 13, S, None, None, ,  
12/07/2017 01:46, 25, 71, 17 ,11, 12, S, None, None, ,  
12/07/2017 01:36, 24, 72, 17 ,9, 12, S, None, None, ,  
12/07/2017 01:36, 24, 72, 17 ,9, 12, S, None, None, ,  
12/07/2017 01:26, 25, 72, 17 ,10, 12, S, None, None, ,  
12/07/2017 01:21, 25, 71, 17 ,10, 12, S, None, None, ,  
12/07/2017 01:16, 25, 72, 17 ,11, 12, S, None, None, ,  
12/07/2017 01:06, 25, 72, 17 ,10, 12, S, None, None, ,  
12/07/2017 01:05, 25, 72, 17 ,11, 12, S, None, None, ,  
12/07/2017 00:55, 24, 73, 17 ,11, 12, S, None, None, ,  
12/07/2017 00:51, 24, 73, 17 ,10, 12, S, None, None, ,  
12/07/2017 00:45, 25, 72, 17 ,11, 12, S, None, None, ,  
12/07/2017 00:36, 25, 72, 17 ,12, 14, S, None, None, ,  
12/07/2017 00:35, 25, 72, 17 ,12, 14, S, None, None, ,  
12/07/2017 00:25, 25, 73, 17 ,12, 13, S, None, None, ,  
12/07/2017 00:21, 25, 73, 17 ,9, 13, S, None, None, ,  
12/07/2017 00:15, 25, 72, 17 ,11, 14, S, None, None, ,  
12/07/2017 00:06, 25, 71, 17 ,10, 13, S, None, None, ,  
12/07/2017 00:05, 26, 71, 18 ,10, 13, S, None, None, ,  
12/06/2017 23:55, 26, 70, 18 ,10, 14, S, None, None, ,  
12/06/2017 23:51, 27, 69, 18 ,12, 14, S, None, None, ,  
12/06/2017 23:45, 27, 70, 18 ,10, 13, S, None, None, ,  
12/06/2017 23:36, 27, 69, 18 ,12, 14, S, None, None, ,  
12/06/2017 23:35, 27, 69, 18 ,12, 14, S, None, None, ,  
12/06/2017 23:25, 27, 69, 18 ,10, 14, S, None, None, ,  
12/06/2017 23:21, 27, 69, 18 ,10, 14, SE, None, None, ,  
12/06/2017 23:15, 27, 69, 18 ,9, 13, S, None, None, ,  
12/06/2017 23:06, 27, 69, 18 ,11, 14, SE, None, None, ,  
12/06/2017 23:05, 27, 69, 18 ,11, 14, S, None, None, ,  
12/06/2017 22:55, 27, 70, 18 ,12, 16, S, None, None, ,  
12/06/2017 22:51, 27, 70, 18 ,12, 16, S, None, None, ,  
12/06/2017 22:45, 26, 71, 18 ,13, 16, S, None, None, ,  
12/06/2017 22:36, 27, 70, 18 ,12, 14, SE, None, None, ,  
12/06/2017 22:35, 26, 71, 18 ,12, 15, S, None, None, ,  
12/06/2017 22:25, 26, 72, 18 ,11, 15, S, None, None, ,  
12/06/2017 22:21, 26, 71, 18 ,12, 15, S, None, None, ,  
12/06/2017 22:15, 25, 74, 18 ,11, 13, S, None, None, ,  
12/06/2017 22:06, 25, 75, 18 ,11, 14, SE, None, None, ,  
12/06/2017 22:04, 25, 75, 18 ,11, 14, S, None, None, ,  
12/06/2017 21:54, 24, 75, 18 ,11, 15, S, None, None, ,  
12/06/2017 21:51, 24, 75, 18 ,10, 15, S, None, None, ,  
12/06/2017 21:44, 24, 75, 17 ,12, 14, S, None, None, ,  
12/06/2017 21:36, 24, 75, 17 ,13, 15, S, None, None, ,  
12/06/2017 21:34, 24, 75, 17 ,12, 15, S, None, None, ,  
12/06/2017 21:24, 24, 75, 17 ,12, 14, S, None, None, ,  
12/06/2017 21:21, 24, 75, 17 ,10, 16, S, None, None, ,  
12/06/2017 21:14, 24, 75, 17 ,14, 16, S, None, None, ,  
12/06/2017 21:06, 23, 76, 17 ,12, 14, S, None, None, ,  
12/06/2017 21:04, 23, 76, 17 ,12, 14, S, None, None, ,  
12/06/2017 20:54, 23, 76, 17 ,11, 15, S, None, None, ,  
12/06/2017 20:51, 23, 76, 17 ,12, 15, S, None, None, ,  
12/06/2017 20:44, 23, 76, 17 ,11, 13, S, None, None, ,  
12/06/2017 20:36, 23, 76, 17 ,12, 14, S, None, None, ,  
12/06/2017 20:34, 23, 76, 17 ,11, 13, S, None, None, ,  
12/06/2017 20:24, 23, 76, 17 ,12, 15, S, None, None, ,  
12/06/2017 20:21, 23, 75, 17 ,9, 14, S, None, None, ,  
12/06/2017 20:14, 24, 74, 17 ,12, 15, S, None, None, ,  
12/06/2017 20:06, 24, 74, 17 ,12, 14, S, None, None, ,  
12/06/2017 20:04, 24, 74, 17 ,11, 13, S, None, None, ,  
12/06/2017 19:54, 24, 73, 17 ,12, 13, S, None, None, ,  
12/06/2017 19:51, 24, 74, 17 ,11, 14, S, None, None, ,  
12/06/2017 19:44, 24, 74, 17 ,11, 14, S, None, None, ,  
12/06/2017 19:36, 24, 73, 17 ,12, 15, S, None, None, ,  
12/06/2017 19:34, 24, 73, 17 ,12, 15, S, None, None, ,  
12/06/2017 19:24, 25, 73, 17 ,11, 14, S, None, None, ,  
12/06/2017 19:22, 25, 73, 17 ,11, 14, S, None, None, ,  
12/06/2017 19:14, 24, 74, 17 ,12, 14, S, None, None, ,  
12/06/2017 19:06, 25, 73, 17 ,12, 14, S, None, None, ,  
12/06/2017 19:04, 25, 73, 17 ,12, 14, S, None, None, ,  
12/06/2017 18:54, 26, 71, 18 ,12, 13, S, None, None, ,  
12/06/2017 18:51, 26, 71, 18 ,9, 14, S, None, None, ,  
12/06/2017 18:43, 26, 73, 18 ,12, 14, S, None, None, ,  
12/06/2017 18:36, 26, 72, 18 ,12, 14, S, None, None, ,  
Change End Date:

Copyright © 1998-2015 Vaisala, Inc.
All Rights Reserved
Send comments about the data to:
SCAN Web ® is a registered trademark of Vaisala, Inc.
SCAN Web Version 6.0